TimeIST,TemperatureF,Dew PointF,Humidity,Sea Level PressureIn,VisibilityMPH,Wind Direction,Wind SpeedMPH,Gust SpeedMPH,PrecipitationIn,Events,Conditions,WindDirDegrees,DateUTC
12:10 AM,73.4,62.6,69,29.98,3.1,Calm,Calm,-,N/A,,Haze,0,2012-10-16 18:40:00
1:10 AM,73.4,64.4,73,29.98,2.5,Calm,Calm,-,N/A,,Haze,0,2012-10-16 19:40:00
2:10 AM,71.6,64.4,78,29.95,2.5,NNW,2.3,-,N/A,,Haze,340,2012-10-16 20:40:00
2:30 AM,67,63,84,29.95,1,Calm,Calm,,,,Haze,,2012-10-16 21:00:00
3:10 AM,69.8,60.8,73,29.98,2.5,Calm,Calm,-,N/A,,Haze,0,2012-10-16 21:40:00
4:10 AM,66.2,60.8,83,29.95,2.5,Calm,Calm,-,N/A,,Haze,0,2012-10-16 22:40:00
5:10 AM,-9999,-9999,N/A,29.95,2.5,NW,2.3,-,N/A,,Haze,320,2012-10-16 23:40:00
5:30 AM,64,61,88,29.96,1,Calm,Calm,,,,Haze,,2012-10-17 00:00:00
6:10 AM,68.0,60.8,78,29.98,2.5,NNW,2.3,-,N/A,,Haze,340,2012-10-17 00:40:00
7:10 AM,68.0,62.6,83,30.01,2.5,North,2.3,-,N/A,,Haze,350,2012-10-17 01:40:00
8:30 AM,77,64,56,30.00,2,Calm,Calm,,,,,,2012-10-17 03:00:00
9:10 AM,86.0,62.6,45,30.04,3.7,Calm,Calm,-,N/A,,Unknown,0,2012-10-17 03:40:00
11:10 AM,91.4,62.6,38,30.01,3.7,North,2.3,-,N/A,,Unknown,10,2012-10-17 05:40:00
11:30 AM,91,65,32,29.94,2,NNW,2.3,,,,,340,2012-10-17 06:00:00
12:10 PM,95.0,62.6,34,29.98,3.7,WNW,1.2,-,N/A,,Unknown,300,2012-10-17 06:40:00
1:10 PM,96.8,62.6,32,29.95,3.7,Calm,Calm,-,N/A,,Partly Cloudy,0,2012-10-17 07:40:00
2:30 PM,91,64,31,29.86,6,East,5.8,,,,Scattered Clouds,90,2012-10-17 09:00:00
3:10 PM,95.0,60.8,32,29.92,3.7,ENE,2.3,-,N/A,,Partly Cloudy,60,2012-10-17 09:40:00
4:10 PM,93.2,59.0,32,29.89,3.7,SE,2.3,-,N/A,,Partly Cloudy,140,2012-10-17 10:40:00
5:10 PM,89.6,64.4,43,29.92,3.7,Calm,Calm,-,N/A,,Partly Cloudy,0,2012-10-17 11:40:00
5:30 PM,81,67,55,29.87,2,Calm,Calm,,,,Scattered Clouds,,2012-10-17 12:00:00
6:10 PM,82.4,66.2,58,2.98,3.7,Calm,Calm,-,N/A,,Partly Cloudy,0,2012-10-17 12:40:00
7:10 PM,78.8,62.6,57,29.95,3.7,Calm,Calm,-,N/A,,Partly Cloudy,0,2012-10-17 13:40:00
8:30 PM,71,64,73,29.94,2,Calm,Calm,,,,Scattered Clouds,,2012-10-17 15:00:00
9:10 PM,77.0,64.4,65,29.98,3.7,Calm,Calm,-,N/A,,Partly Cloudy,0,2012-10-17 15:40:00
10:10 PM,75.2,62.6,65,29.98,3.1,Calm,Calm,-,N/A,,Haze,0,2012-10-17 16:40:00
11:10 PM,75.2,62.6,65,29.95,2.5,Calm,Calm,-,N/A,,Haze,0,2012-10-17 17:40:00
11:30 PM,68,65,85,29.95,1,Calm,Calm,,,,Haze,,2012-10-17 18:00:00